Hourly Weather Agafonkovo

Today, 7 March, Sunday

Time Temperature Precipitation Wind Pressure Humidity
00:00 -17°C° 0 mm 1 mps 733 mmHg 97%
01:00 -17°C° 0 mm 1 mps 733 mmHg 98%
02:00 -18°C° 0 mm 1 mps 733 mmHg 98%
03:00 -18°C° 0 mm 1 mps 732 mmHg 98%
04:00 -18°C° 0 mm 1 mps 732 mmHg 98%
05:00 -18°C° 0 mm 1 mps 732 mmHg 98%
06:00 -19°C° 0 mm 1 mps 732 mmHg 98%
07:00 -19°C° 0 mm 1 mps 731 mmHg 98%
08:00 -17°C° 0 mm 1 mps 732 mmHg 96%
09:00 -16°C° 0 mm 1 mps 732 mmHg 93%
10:00 -14°C° 0 mm 1 mps 731 mmHg 90%
11:00 -13°C° 0 mm 1 mps 731 mmHg 87%
12:00 -12°C° 0 mm 1 mps 731 mmHg 85%
13:00 -13°C° 0 mm 2 mps 731 mmHg 82%
14:00 -13°C° 0.1 mm 2 mps 731 mmHg 83%
15:00 -13°C° 0.1 mm 2 mps 731 mmHg 83%
16:00 -11°C° 0 mm 1 mps 730 mmHg 84%
17:00 -14°C° 0 mm 2 mps 730 mmHg 88%
18:00 -16°C° 0 mm 2 mps 730 mmHg 91%
19:00 -17°C° 0 mm 2 mps 730 mmHg 95%
20:00 -18°C° 0 mm 2 mps 730 mmHg 96%
21:00 -19°C° 0 mm 2 mps 730 mmHg 97%
22:00 -20°C° 0 mm 2 mps 731 mmHg 98%
23:00 -20°C° 0 mm 2 mps 730 mmHg 98%

Tomorrow, 8 March, Monday

Time Temperature Precipitation Wind Pressure Humidity
00:00 -21°C° 0 mm 2 mps 730 mmHg 99%
01:00 -21°C° 0 mm 2 mps 730 mmHg 99%
02:00 -21°C° 0 mm 2 mps 730 mmHg 99%
03:00 -21°C° 0 mm 2 mps 730 mmHg 99%
04:00 -21°C° 0 mm 2 mps 730 mmHg 98%
05:00 -22°C° 0 mm 3 mps 729 mmHg 97%
06:00 -21°C° 0 mm 3 mps 728 mmHg 96%
07:00 -19°C° 0 mm 3 mps 728 mmHg 95%
08:00 -19°C° 0.2 mm 4 mps 727 mmHg 94%
09:00 -17°C° 0.2 mm 4 mps 727 mmHg 92%
10:00 -15°C° 0.2 mm 4 mps 726 mmHg 91%
11:00 -14°C° 0.1 mm 5 mps 726 mmHg 90%
12:00 -13°C° 0.1 mm 5 mps 725 mmHg 90%
13:00 -12°C° 0.1 mm 6 mps 725 mmHg 89%
14:00 -11°C° 0.2 mm 6 mps 724 mmHg 89%
15:00 -10°C° 0.2 mm 6 mps 724 mmHg 90%
16:00 -9°C° 0.2 mm 6 mps 724 mmHg 90%
17:00 -10°C° 0.1 mm 5 mps 724 mmHg 88%
18:00 -10°C° 0.1 mm 5 mps 724 mmHg 85%
19:00 -11°C° 0.1 mm 5 mps 724 mmHg 83%
20:00 -12°C° 0 mm 5 mps 724 mmHg 85%
21:00 -12°C° 0 mm 5 mps 725 mmHg 86%
22:00 -13°C° 0 mm 5 mps 725 mmHg 88%
23:00 -13°C° 0 mm 5 mps 725 mmHg 89%

Day after tomorrow, 9 March, Tuesday

Time Temperature Precipitation Wind Pressure Humidity
00:00 -12°C° 0 mm 4 mps 725 mmHg 90%
01:00 -12°C° 0 mm 4 mps 725 mmHg 90%
02:00 -14°C° 0 mm 4 mps 725 mmHg 92%
03:00 -13°C° 0 mm 3 mps 725 mmHg 93%
04:00 -14°C° 0 mm 3 mps 725 mmHg 94%
05:00 -13°C° 0 mm 2 mps 725 mmHg 95%
06:00 -12°C° 0 mm 1 mps 725 mmHg 96%
07:00 -13°C° 0 mm 0 mps 725 mmHg 98%
08:00 -11°C° 0.3 mm 1 mps 726 mmHg 95%
09:00 -12°C° 0.3 mm 2 mps 727 mmHg 93%
10:00 -12°C° 0.3 mm 3 mps 728 mmHg 91%
11:00 -11°C° 0 mm 4 mps 729 mmHg 89%
12:00 -10°C° 0 mm 4 mps 730 mmHg 87%
13:00 -10°C° 0 mm 4 mps 730 mmHg 85%
14:00 -10°C° 0 mm 4 mps 731 mmHg 85%
15:00 -10°C° 0 mm 4 mps 731 mmHg 85%
16:00 -9°C° 0 mm 3 mps 731 mmHg 86%
17:00 -12°C° 0 mm 3 mps 732 mmHg 89%
18:00 -13°C° 0 mm 2 mps 732 mmHg 92%
19:00 -14°C° 0 mm 2 mps 732 mmHg 94%
20:00 -13°C° 0 mm 1 mps 732 mmHg 95%
21:00 -14°C° 0 mm 1 mps 732 mmHg 96%
22:00 -15°C° 0 mm 1 mps 732 mmHg 97%
23:00 -16°C° 0 mm 1 mps 732 mmHg 97%

10 March, Wednesday

Time Temperature Precipitation Wind Pressure Humidity
00:00 -16°C° 0 mm 0 mps 732 mmHg 98%
01:00 -16°C° 0 mm 0 mps 731 mmHg 98%
02:00 -16°C° 0 mm 0 mps 731 mmHg 98%
03:00 -16°C° 0 mm 1 mps 731 mmHg 97%
04:00 -15°C° 0 mm 1 mps 730 mmHg 97%
05:00 -17°C° 0 mm 2 mps 730 mmHg 97%
06:00 -17°C° 0 mm 2 mps 729 mmHg 96%
07:00 -18°C° 0 mm 3 mps 729 mmHg 96%
08:00 -18°C° 0.1 mm 4 mps 728 mmHg 95%
09:00 -17°C° 0.1 mm 4 mps 728 mmHg 94%
10:00 -17°C° 0.1 mm 5 mps 728 mmHg 94%
11:00 -17°C° 0.5 mm 5 mps 727 mmHg 93%
12:00 -16°C° 0.5 mm 6 mps 727 mmHg 93%
13:00 -16°C° 0.5 mm 6 mps 727 mmHg 93%
14:00 -16°C° 0.7 mm 6 mps 727 mmHg 93%
15:00 -17°C° 0.7 mm 6 mps 727 mmHg 93%
16:00 -17°C° 0.7 mm 6 mps 727 mmHg 93%
17:00 -18°C° 0.5 mm 6 mps 728 mmHg 93%
18:00 -19°C° 0.5 mm 5 mps 728 mmHg 94%
19:00 -19°C° 0.5 mm 5 mps 729 mmHg 94%
20:00 -20°C° 0.3 mm 5 mps 729 mmHg 94%
21:00 -21°C° 0.3 mm 5 mps 730 mmHg 94%
22:00 -22°C° 0.3 mm 5 mps 730 mmHg 95%
23:00 -22°C° 0.2 mm 5 mps 731 mmHg 95%

11 March, Thursday

Time Temperature Precipitation Wind Pressure Humidity
00:00 -24°C° 0.2 mm 5 mps 731 mmHg 95%
01:00 -24°C° 0.2 mm 5 mps 731 mmHg 95%
02:00 -24°C° 0.1 mm 4 mps 731 mmHg 95%
03:00 -25°C° 0.1 mm 4 mps 732 mmHg 95%
04:00 -26°C° 0.1 mm 4 mps 732 mmHg 95%
05:00 -27°C° 0 mm 4 mps 733 mmHg 95%
06:00 -27°C° 0 mm 3 mps 733 mmHg 95%
07:00 -29°C° 0 mm 3 mps 734 mmHg 95%
08:00 -27°C° 0 mm 3 mps 734 mmHg 95%
09:00 -26°C° 0 mm 3 mps 735 mmHg 94%
10:00 -25°C° 0 mm 3 mps 735 mmHg 93%
11:00 -23°C° 0 mm 3 mps 735 mmHg 91%
12:00 -21°C° 0 mm 3 mps 735 mmHg 89%
13:00 -19°C° 0 mm 3 mps 736 mmHg 87%
14:00 -18°C° 0 mm 3 mps 736 mmHg 88%
15:00 -19°C° 0 mm 4 mps 736 mmHg 89%
16:00 -19°C° 0 mm 4 mps 736 mmHg 89%
17:00 -19°C° 0 mm 4 mps 737 mmHg 91%
18:00 -20°C° 0 mm 4 mps 737 mmHg 92%
19:00 -20°C° 0 mm 4 mps 737 mmHg 93%
20:00 -22°C° 0 mm 4 mps 738 mmHg 94%
21:00 -22°C° 0 mm 4 mps 738 mmHg 94%
22:00 -22°C° 0 mm 4 mps 738 mmHg 94%
23:00 -20°C° 0.1 mm 4 mps 739 mmHg 94%

12 March, Friday

Time Temperature Precipitation Wind Pressure Humidity
00:00 -20°C° 0.1 mm 4 mps 739 mmHg 94%
01:00 -20°C° 0.1 mm 4 mps 739 mmHg 93%
02:00 -20°C° 0 mm 4 mps 739 mmHg 93%
03:00 -20°C° 0 mm 4 mps 740 mmHg 94%
04:00 -20°C° 0 mm 4 mps 740 mmHg 94%
05:00 -22°C° 0 mm 4 mps 741 mmHg 94%
06:00 -22°C° 0 mm 4 mps 741 mmHg 95%
07:00 -21°C° 0 mm 3 mps 742 mmHg 96%
08:00 -20°C° 0 mm 4 mps 742 mmHg 94%
09:00 -19°C° 0 mm 4 mps 743 mmHg 93%
10:00 -17°C° 0 mm 4 mps 743 mmHg 92%
11:00 -16°C° 0 mm 4 mps 743 mmHg 89%
12:00 -15°C° 0 mm 4 mps 744 mmHg 87%
13:00 -12°C° 0 mm 4 mps 744 mmHg 84%
14:00 -12°C° 0 mm 4 mps 744 mmHg 83%
15:00 -12°C° 0 mm 4 mps 744 mmHg 82%
16:00 -11°C° 0 mm 4 mps 744 mmHg 81%
17:00 -14°C° 0 mm 4 mps 744 mmHg 84%
18:00 -14°C° 0 mm 3 mps 744 mmHg 88%
19:00 -16°C° 0 mm 3 mps 745 mmHg 91%
20:00 -16°C° 0 mm 3 mps 745 mmHg 91%
21:00 -17°C° 0 mm 3 mps 745 mmHg 92%
22:00 -17°C° 0 mm 3 mps 745 mmHg 93%
23:00 -18°C° 0 mm 3 mps 746 mmHg 94%
Show more